Location: Lady Lake Astronomical Observatory
(47.6963°N, 53.2446°W)
Time: 20:36:28
(UTC-02:-30)

Envisat - Visible Passes

Search period start: 17 October 2019 00:00
Search period end: 27 October 2019 00:00
Orbit: 764 x 766 km, 98.1° (Epoch: 17 October)

Date Brightness Start Highest point End Pass type
(mag) Time Alt. Az. Time Alt. Az. Time Alt. Az.
17 Oct 3.1 18:34:09 10° SSE 18:39:06 55° ENE 18:44:03 10° N visible
17 Oct 5.5 20:14:34 10° SW 20:18:27 22° W 20:22:22 10° NW visible
18 Oct 6.3 06:41:02 10° NE 06:43:50 15° E 06:46:38 10° ESE visible
18 Oct 4.2 19:36:33 10° S 19:41:23 44° W 19:46:17 10° NNW visible
19 Oct 3.0 18:59:27 10° SSE 19:04:32 89° E 19:09:40 10° NNW visible
19 Oct 6.1 20:41:59 10° WSW 20:44:17 13° W 20:46:36 10° WNW visible
20 Oct 5.2 20:02:48 10° SSW 20:07:05 27° W 20:11:23 10° NW visible
21 Oct 6.5 06:30:41 10° ENE 06:32:24 12° E 06:34:08 10° ESE visible
21 Oct 3.8 19:25:07 10° S 19:30:05 55° W 19:35:06 10° NNW visible
22 Oct 2.9 18:48:14 10° SSE 18:53:17 73° ENE 18:58:23 10° N visible
22 Oct 5.9 20:29:44 10° SW 20:32:52 16° W 20:36:01 10° NW visible
23 Oct 6.0 06:54:34 10° NE 06:58:16 20° E 07:01:56 10° SE visible
23 Oct 4.8 19:51:10 10° SSW 19:55:44 33° W 20:00:19 10° NNW visible
24 Oct 3.4 19:13:44 10° S 19:18:47 69° WSW 19:23:53 10° NNW visible
25 Oct 3.0 18:37:04 10° SSE 18:42:03 59° ENE 18:47:03 10° N visible
25 Oct 5.6 20:17:46 10° SW 20:21:28 20° W 20:25:12 10° NW visible
26 Oct 6.1 06:43:45 10° NE 06:46:52 16° E 06:49:56 10° SE visible
26 Oct 4.4 19:39:37 10° SSW 19:44:23 41° W 19:49:12 10° NNW visible
